Simultaneous Nadir Overpasses (SNOs) Predictions

Prediction of SNOs between GOES-17 and NOAA-19 Satellite Orbit:

Table of predicted SNOs for the next 14.0 days since TLE Epoch: 5/4/2024
Index Date Time (GOES-17) GOES-17 Lat,Lon NOAA-19 Lat,Lon Distance(km) Time Diff (sec)
1 05/04/2024 04:29:47 0.01,-104.69 0.00,-109.16 496.25 80
2 05/05/2024 04:17:15 0.01,-104.70 -0.27,-105.96 143.58 80
3 05/06/2024 04:02:20 0.01,-104.70 0.39,-102.97 196.70 80
4 05/08/2024 16:21:46 -0.00,-104.71 0.65,-107.60 329.68 80
5 05/09/2024 16:12:10 0.00,-104.71 -0.01,-104.62 10.52 80
6 05/10/2024 15:59:55 0.00,-104.71 -0.67,-101.63 350.65 80
7 05/13/2024 04:19:36 -0.01,-104.71 -0.39,-106.32 184.47 80
8 05/14/2024 04:04:40 0.00,-104.71 0.29,-103.34 155.62 80
9 05/15/2024 03:52:26 0.02,-104.72 1.04,-100.38 495.79 80
10 05/16/2024 16:24:07 -0.02,-104.73 0.75,-107.98 371.34 80
11 05/17/2024 16:11:52 -0.03,-104.73 0.02,-105.01 30.79 80
